Flag for U.S.A. Weather past 2 weeks in New Haven, Connecticut, U.S.A.

Now
67 °F

Sunny.


Feels Like: 67 °F
Forecast: 58 / 79 °F
Wind: 8 mph from North

Location: Tweed-New Haven Airport

Current Time: Aug 28, 2015 at 9:53:02 AM

Latest Report: Aug 28, 2015 at 8:53 AM


Visibility: 10 mi

Pressure: 30.16 "Hg

Humidity: 68%

Dew point: 56 °F

Location of New HavenLocation

Historic Weather in New Haven — Graph

°F

New Haven temperature yesterday

Maximum temperature yesterday: 79 °F (at 3:53 PM)
Minimum temperature yesterday: 62 °F (at 12:53 AM)
Average temperature yesterday: 70 °F

Past Weeks' High & Low Weather Summary

 TemperatureHumidityPressure
High87 °F (Aug 17, 3:53 PM)100% (Aug 14, 6:53 AM)30.17 "Hg (Aug 14, 6:53 AM)
Low58 °F (Aug 14, 5:53 AM)38% (Aug 14, 3:53 PM)29.82 "Hg (Aug 25, 4:53 PM)
Average75 °F74%30.02 "Hg
* Reported Aug 13 8:53 AM — Aug 28 8:53 AM, New Haven, Weather by CustomWeather, © 2015

Note: Actual official high and low records may vary slightly from our data, if they occured in-between our weather recording intervals... More about our weather records

Advertising

New Haven weather history for previous 24 hours

 ConditionsComfort  
Time TempWeatherWind HumidityBarometerVisibility
8:53 AM
Fri, Aug 28
67 °FSunny.8 mph68%30.16 "Hg10 mi
7:53 AM63 °FSunny.7 mph75%30.16 "Hg10 mi
6:53 AM60 °FPassing clouds.6 mph83%30.14 "Hg10 mi
5:53 AM60 °FOvercast.3 mph83%30.13 "Hg10 mi
4:53 AM61 °FClear.3 mph78%30.12 "Hg10 mi
3:53 AM62 °FClear.5 mph78%30.11 "Hg10 mi
2:53 AM63 °FClear.6 mph75%30.11 "Hg10 mi
1:53 AM62 °FClear.3 mph75%30.11 "Hg10 mi
12:53 AM66 °FClear.6 mph70%30.12 "Hg10 mi
11:53 PM
Thu, Aug 27
67 °FClear.5 mph68%30.11 "Hg10 mi
10:53 PM66 °FClear.5 mph68%30.10 "Hg10 mi
9:53 PM70 °FClear.3 mph61%30.09 "Hg10 mi
8:53 PM72 °FClear.5 mph57%30.07 "Hg10 mi
7:53 PM73 °FSunny.6 mph53%30.05 "Hg10 mi
6:53 PM75 °FScattered clouds.6 mph50%30.03 "Hg10 mi
5:53 PM77 °FPartly sunny.7 mph45%30.03 "Hg10 mi
4:53 PM76 °FOvercast.7 mph47%30.02 "Hg10 mi
3:53 PM79 °FPartly sunny.6 mph50%30.02 "Hg10 mi
2:53 PM75 °FPartly sunny.14 mph58%30.03 "Hg10 mi
1:53 PM74 °FPartly sunny.10 mph60%30.03 "Hg10 mi
12:53 PM75 °FBroken clouds.10 mph58%30.04 "Hg10 mi
11:53 AM76 °FPassing clouds.6 mph47%30.04 "Hg10 mi
10:53 AM75 °FScattered clouds.6 mph50%30.05 "Hg10 mi
9:53 AM72 °FSunny.8 mph57%30.05 "Hg10 mi
Weather by CustomWeather, © 2015

See weather overviewHow to use our weather pages